Regional Weather Roundup
Issued by NWS

Home | Current Version | Previous Version | Text Only | Print | Product List | Glossary On
Versions: 1 2 3 4 5 6 7 8 9 10 11 12 13 14 15 16 17 18 19 20 21 22 23 24 25 26 27 28 29 30 31 32 33 34 35 36 37 38 39 40 41 42 43 44 45 46 47 48 49 50
000
ASUS43 KTOP 010159
RWRKS

WEATHER ROUNDUP FOR KANSAS
NATIONAL WEATHER SERVICE GOODLAND KS
900 PM CDT FRI JUL 31 2015

NOTE:  "FAIR" INDICATES FEW OR NO CLOUDS BELOW 12,000 FEET WITH NO
SIGNIFICANT WEATHER AND/OR OBSTRUCTIONS TO VISIBILITY.

KSZ001>006-013>018-027>032-041>047-010300-
NORTHWEST KANSAS

CITY           SKY/WX    TMP DP  RH WIND       PRES   REMARKS
GOODLAND       PTCLDY    80  59  48 S7        30.16R
HAYS           CLEAR     82  63  51 S8        30.09R
HILL CITY      PTCLDY    83  62  49 S6        30.08R
RUSSELL        CLEAR     80  66  62 S9        30.07R
$$

KSZ061>065-074>080-084>089-010300-
SOUTHWEST KANSAS

CITY           SKY/WX    TMP DP  RH WIND       PRES   REMARKS
DODGE CITY     MOCLDY    80  60  50 SE8       30.13R
ELKHART          N/A     72  64  76 SE7         N/A
GARDEN CITY    PTCLDY    76  66  71 S6        30.14R
GREAT BEND     CLEAR     81  66  61 SE6       30.08S
LIBERAL        CLOUDY    79  63  57 SE7       30.15R
$$

KSZ066>073-081>083-090>101-010300-
SOUTHEAST KANSAS

CITY           SKY/WX    TMP DP  RH WIND       PRES   REMARKS
CHANUTE        CLEAR     79  71  76 S7        30.07R
COFFEYVILLE    PTCLDY    81  71  71 S3        30.07R
HUTCHINSON     CLEAR     79  70  74 SE3       30.08R
MEDICINE LODGE   N/A     81  72  74 SE5       30.07R
NEWTON         CLEAR     81  66  61 SE3       30.11R
PARSONS        PTCLDY    81  73  76 CALM      30.08R
WICHITA INTL   PTCLDY    84  69  60 SE7       30.07R
WICHITA JABRA  CLEAR     82  70  66 E3        30.08R
WINFIELD       MOCLDY    82  74  76 SE6       30.08R
$$

KSZ007>012-019>026-033>040-048>060-102>105-010300-
NORTHEAST KANSAS

CITY           SKY/WX    TMP DP  RH WIND       PRES   REMARKS
CONCORDIA      CLEAR     81  71  71 CALM      30.06R
EMPORIA        CLEAR     81  70  69 SE5       30.06S
LAWRENCE       CLEAR     76  72  87 CALM      30.04S
MANHATTAN      CLEAR     82  72  71 CALM      30.04S
OLATHE IND     CLEAR     81  67  62 CALM      30.06S
OLATHE EXE     CLEAR     81  68  64 CALM      30.05S
SALINA         CLEAR     81  70  69 S6        30.06R
TOPEKA BILLARD CLEAR     82  72  71 CALM      30.04S
TOPEKA FORBES  CLEAR     82  70  66 SE3       30.05S
$$



USA.gov is the U.S. government's official web portal to all federal, state and local government web resources and services.